Location: *
(33.8649°S, 62.1526°E)
Time: 01:42:37
(UTC+00:00)

Cosmos 44 Rocket - Visible Passes

Search period start: 02 December 2021 00:00
Search period end: 12 December 2021 00:00
Orbit: 644 x 745 km, 65.1° (Epoch: 01 December)

Date Brightness Start Highest point End Pass type
(mag) Time Alt. Az. Time Alt. Az. Time Alt. Az.
02 Dec 5.2 18:00:04 20° SE 18:00:04 20° SE 18:01:35 10° SE visible
02 Dec 5.7 19:38:43 16° SW 19:38:50 16° SW 19:41:41 10° SSW visible
03 Dec 4.7 18:39:43 34° SSW 18:39:43 34° SSW 18:43:06 10° SSE visible
04 Dec 4.1 17:40:32 39° SE 17:40:32 39° SE 17:43:34 10° SSE visible
04 Dec 6.0 19:19:09 10° WSW 19:20:54 12° SW 19:22:47 10° SSW visible
05 Dec 4.8 16:41:06 20° ESE 16:41:06 20° ESE 16:43:07 10° SE visible
05 Dec 4.9 18:19:42 27° WSW 18:20:39 29° SW 18:24:47 10° S visible
06 Dec 3.1 17:19:51 58° NW 17:20:44 81° WSW 17:25:28 10° SSE visible
07 Dec 3.8 16:19:12 24° NNE 16:21:07 34° ENE 16:25:21 10° SE visible
07 Dec 5.4 17:59:00 10° WNW 18:02:40 23° SW 18:06:23 10° S visible
08 Dec 5.0 15:20:17 10° NE 15:21:45 11° ENE 15:23:13 10° E visible
08 Dec 3.7 16:58:05 10° NW 17:02:39 59° WSW 17:07:20 10° SSE visible
09 Dec 3.4 15:58:32 10° N 16:02:57 46° ENE 16:07:27 10° SE visible
09 Dec 5.9 17:41:33 10° W 17:44:41 18° SW 17:47:52 10° S visible
10 Dec 4.4 16:40:10 10° NW 16:44:35 44° WSW 16:49:07 10° SSE visible
11 Dec 3.1 15:40:13 10° NNW 15:44:48 64° ENE 15:49:28 10° SE visible
11 Dec 6.3 17:24:23 10° WSW 17:26:45 14° SW 17:29:09 10° SSW visible
